Simultaneous Nadir Overpasses (SNOs) Predictions

Prediction of SNOs between NOAA-19 and NPP Satellite Orbit:

Table of predicted SNOs for the next 14.0 days since TLE Epoch: 3/8/2013
Index Date (NOAA-19) Time (NOAA-19) Lat,Lon (NOAA-19) SZA (NOAA-19 ) Date (NPP) Time (NPP) Lat,Lon (NPP) SZA (NPP ) Distance(km) Time Diff (sec)
1 03/19/2013 04:21:34 -80.87,-116.88 94.96 03/19/2013 04:22:31 -80.87,-116.92 94.98 0.82 57
2 03/19/2013 05:12:31 80.86, 50.65 84.99 03/19/2013 05:13:15 80.85, 50.69 84.96 0.66 44
3 03/19/2013 06:03:36 -80.83,-141.43 95.13 03/19/2013 06:03:59 -80.83,-141.60 95.12 3.11 23
4 03/19/2013 06:54:33 80.82, 26.11 84.82 03/19/2013 06:54:43 80.82, 26.01 84.82 1.68 10
5 03/19/2013 07:45:40 -80.82,-166.69 95.20 03/19/2013 07:45:28 -80.82,-166.63 95.20 1.17 12
6 03/19/2013
